Regional Weather Roundup
Issued by NWS

Home | Current Version | Previous Version | Graphics & Text | Print | Product List | Glossary On
Versions: 1 2 3 4 5 6 7 8 9 10 11 12 13 14 15 16 17 18 19 20 21 22 23 24 25 26 27 28 29 30 31 32 33 34 35 36 37 38 39 40 41 42 43 44 45 46 47 48 49 50
000
ASUS43 KMKX 101959
RWRWI

WISCONSIN REGIONAL WEATHER ROUNDUP
NATIONAL WEATHER SERVICE MILWAUKEE/SULLIVAN WI
200 PM CST WED FEB 10 2016

NOTE: "FAIR" INDICATES FEW OR NO CLOUDS BELOW 12,000 FEET WITH NO
SIGNIFICANT WEATHER AND/OR OBSTRUCTIONS TO VISIBILITY.

WIZ001-002-006>008-014>016-023>028-102100-
NORTHWEST WISCONSIN

CITY           SKY/WX    TMP DP  RH WIND       PRES   REMARKS
SUPERIOR ARPT  SUNNY      9  -4  57 CALM      30.14F
ASHLAND        PTSUNNY   10  -2  58 NE6       30.11S WCI   0
HAYWARD        SUNNY      9  -4  55 N6        30.05F WCI  -1
SIREN          SUNNY      7  -5  59 NW3       30.11S
CUMBERLAND     SUNNY      7  -4  61 NW3       30.06F
RICE LAKE      SUNNY      8  -3  60 NW8       30.09F WCI  -4
CHETEK         SUNNY      8  -3  60 NW3       30.07F
LADYSMITH      MOSUNNY   11  -4  51 N7        30.05F WCI   0
EAU CLAIRE     SUNNY      8  -3  61 NW7       30.08F WCI  -3
MENOMONIE      SUNNY     17  -3  41 N3        30.10S
NEW RICHMOND   CLOUDY     7  -6  57 NE5       30.10F WCI  -2
OSCEOLA        SUNNY      8  -3  59 CALM      30.14F
$$

WIZ003>005-009-010-017-018-102100-
NORTH CENTRAL WISCONSIN

CITY           SKY/WX    TMP DP  RH WIND       PRES   REMARKS
MANITOWISH WTR CLOUDY     7  -4  59 N12       29.97F WCI  -8
ARBOR VITAE    CLOUDY     9  -2  60 N12G17    29.96F WCI  -5
WOODRUFF       CLOUDY     9  -2  60 N12G17    29.96F WCI  -5
RHINELANDER    MOSUNNY    8  -5  55 NW8       29.96S WCI  -4
EAGLE RIVER    CLOUDY     8  -5  55 NW13      29.95S WCI  -7
LAND O LAKES   CLOUDY     7  -3  62 N10       29.97S WCI  -7
PHILLIPS       CLOUDY     8  -3  63 N7        29.99F WCI  -4
TOMAHAWK       MOSUNNY   10  -4  52 N7        29.98F WCI  -1
MEDFORD        PTSUNNY    9  -4  55 N7        29.98S WCI  -2
MERRILL        MOSUNNY   11  -5  47 CALM      29.99S
$$

WIZ029-030-035-036-043>047-102100-
CENTRAL WISCONSIN

CITY           SKY/WX    TMP DP  RH WIND       PRES   REMARKS
WAUSAU         MOSUNNY   13  -4  46 NW10G16   29.98F WCI   0
MOSINEE        MOSUNNY   10  -2  56 N6        29.99F WCI   1
MARSHFIELD     MOSUNNY   10  -5  50 NW13      30.00S WCI  -5
STEVENS POINT  MOSUNNY   10  -4  52 N12       30.00F WCI  -5
WAUPACA        MOSUNNY   17  -3  42 NW8       30.01F WCI   6
WAUTOMA        NOT AVBL
WISC RAPIDS    MOSUNNY   11  -4  51 N14       30.03F WCI  -5
CAMP DOUGLAS   NOT AVBL
$$

WIZ011>013-019>022-031-037>040-048>050-102100-
NORTHEAST WISCONSIN

CITY           SKY/WX    TMP DP  RH WIND       PRES   REMARKS
ANTIGO         SUNNY      9  -4  55 N10G16    29.95S WCI  -5
SHAWANO        SUNNY     16  -6  36 N8        30.01S WCI   6
OCONTO         SUNNY     14  -5  43 NW12      30.01S WCI   0
STURGEON BAY   MOSUNNY   14  -6  41 NW17      30.00R WCI  -3
GREEN BAY      SUNNY     13  -5  44 NW14      30.01S WCI  -2
MANITOWOC      NOT AVBL
APPLETON       MOSUNNY   12  -6  44 NW12      29.99S WCI  -2
CLINTONVILLE   SUNNY     16  -6  38 NW8       30.01S WCI   5
OSHKOSH        MOSUNNY   13  -3  49 N14       30.00F WCI  -2
$$

WIZ032>034-041-042-053>061-102100-
SOUTHWEST WISCONSIN

CITY           SKY/WX    TMP DP  RH WIND       PRES   REMARKS
LA CROSSE      CLOUDY    10  -2  58 W8        30.09S WCI  -2
SPARTA         CLOUDY    12  -1  54 N7        30.07S WCI   2
VIROQUA        CLOUDY    10  -3  55 N8        30.01F WCI  -1
BOSCOBEL       CLOUDY    15  -3  44 NW7       30.07S WCI   5
PRAIRIE DU CHI SUNNY     15  -4  42 W7        30.07F WCI   5
PLATTEVILLE    SUNNY     13   0  56 NW8       30.02F WCI   1
$$

WIZ056-057-062-063-064-067-068-102100-
SOUTH CENTRAL WISCONSIN

CITY           SKY/WX    TMP DP  RH WIND       PRES   REMARKS
REEDSBURG      SUNNY     11  -2  55 NW8       30.03S WCI  -1
BARABOO/DELLS  MOSUNNY   13  -3  50 NW6       30.02S WCI   4
LONE ROCK      NOT AVBL
MINERAL POINT  CLOUDY    14  -2  48 NW8       30.00F WCI   3
MADISON        PTSUNNY   12  -2  53 N12G18    30.02S WCI  -2
MIDDLETON      SUNNY     14   0  53 N10       30.02S WCI   2
WATERTOWN      CLOUDY    12   1  62 NW13      30.01S WCI  -3
MONROE         SUNNY     16   1  53 NW6       30.00S WCI   7
JANESVILLE     PTSUNNY   16   3  57 NW13      30.02S WCI   2
$$

WIZ051-052-058>065-066-070>072-102100-
SOUTHEAST WISCONSIN

CITY           SKY/WX    TMP DP  RH WIND       PRES   REMARKS
MILWAUKEE      PTSUNNY   15  -1  49 NW12      30.00S WCI   2
WAUKESHA       CLOUDY    10   0  61 NW12      30.00S WCI  -4
MILWAUKEE/TIMM PTSUNNY   12  -4  48 NW14      30.01S WCI  -3
RACINE         PTSUNNY   15  -1  49 NW9       30.02R WCI   3
BURLINGTON     PTSUNNY   15   0  53 NW8       30.00R WCI   3
KENOSHA        PTSUNNY   15   1  53 NW10G18   30.00S WCI   2
FOND DU LAC    PTSUNNY   13  -2  51 N10       30.01S WCI   0
SHEBOYGAN      SUNNY     12  -4  48 NW12      30.00S WCI  -2
WEST BEND      MOSUNNY   12  -4  48 NW13      30.00R WCI  -3
JUNEAU         CLOUDY    11   0  60 NW8       30.01S WCI   0
$$

LSZ147-162-102100-
LAKE SUPERIOR

STATION/POSITION TIME  TEMP    WIND        PRES    WAVE
                       AIR SEA DIR/SP/G            HT/PER
                 (UTC) (F)     (DEG/KT/KT) (MB)    (FT/S)
DEVILS ISLAND    1900    8     340/  9/ 12 1021.7F
SAXON HARBOR     1940   11                 1019.0F
$$

LMZ867-665-643>646-102100-
LAKE MICHIGAN

STATION/POSITION TIME  TEMP    WIND        PRES    WAVE
                       AIR SEA DIR/SP/G            HT/PER
                 (UTC) (F)     (DEG/KT/KT) (MB)    (FT/S)
CHAMBERS ISLAND  1900   15     310/ 18/ 23 1014.9F
ALGOMA LAKESHORE 1911          330/ 15/ 21   N/A
KEWAUNEE LAKESHO 1900   12     310/ 10/ 17 1014.8F
SHEBOYGAN LAKESH 1900   11     310/ 15/ 18 1017.6R
PORT WASHINGTON  1900   13     310/ 10/ 15 1016.9F
MILWAUKEE LAKESH 1910   13     290/ 15/ 17   N/A
KENOSHA   LAKESH 1900   13     290/ 11/ 15 1015.9F
$$

TC  - TEMPERATURE IN CELSIUS
VSB - VISIBILITY IN STATUTE MILES
WCI - WIND CHILL INDEX
HX  - HEAT INDEX




USA.gov is the U.S. government's official web portal to all federal, state and local government web resources and services.